TimeCDT,TemperatureF,Dew PointF,Humidity,Sea Level PressureIn,VisibilityMPH,Wind Direction,Wind SpeedMPH,Gust SpeedMPH,PrecipitationIn,Events,Conditions,WindDirDegrees,DateUTC
12:15 AM,39.2,28.4,65,29.77,10.0,SSW,8.1,-,0.00,,Partly Cloudy,210,2012-10-08 05:15:00
12:35 AM,39.2,28.4,65,29.76,10.0,SSW,9.2,-,0.00,,Scattered Clouds,210,2012-10-08 05:35:00
12:55 AM,39.2,28.4,65,29.76,10.0,SSW,9.2,-,0.00,,Scattered Clouds,210,2012-10-08 05:55:00
1:15 AM,41.0,28.4,61,29.75,10.0,SW,8.1,-,0.00,,Mostly Cloudy,220,2012-10-08 06:15:00
1:35 AM,42.8,28.4,57,29.74,10.0,SW,12.7,-,0.00,,Mostly Cloudy,220,2012-10-08 06:35:00
1:55 AM,42.8,30.2,61,29.74,10.0,WSW,10.4,-,0.00,,Scattered Clouds,240,2012-10-08 06:55:00
2:15 AM,42.8,30.2,61,29.74,10.0,SW,9.2,-,0.00,,Scattered Clouds,230,2012-10-08 07:15:00
2:35 AM,41.0,30.2,65,29.74,10.0,SW,8.1,-,0.00,,Clear,230,2012-10-08 07:35:00
2:55 AM,41.0,32.0,70,29.73,10.0,SW,5.8,-,0.00,,Clear,220,2012-10-08 07:55:00
3:15 AM,41.0,32.0,70,29.72,10.0,SW,8.1,-,0.00,,Scattered Clouds,220,2012-10-08 08:15:00
3:35 AM,41.0,32.0,70,29.71,10.0,SW,5.8,-,0.00,,Mostly Cloudy,220,2012-10-08 08:35:00
3:55 AM,39.2,32.0,75,29.69,10.0,SSW,5.8,-,0.00,,Overcast,210,2012-10-08 08:55:00
4:15 AM,39.2,32.0,75,29.68,10.0,SW,6.9,-,0.00,,Mostly Cloudy,220,2012-10-08 09:15:00
4:35 AM,39.2,33.8,81,29.67,10.0,South,6.9,-,0.00,,Mostly Cloudy,180,2012-10-08 09:35:00
4:55 AM,42.8,35.6,76,29.66,10.0,SSW,8.1,-,0.00,,Overcast,200,2012-10-08 09:55:00
5:15 AM,42.8,33.8,70,29.66,10.0,SSW,10.4,-,0.00,,Mostly Cloudy,200,2012-10-08 10:15:00
5:35 AM,42.8,33.8,70,29.65,10.0,SSW,11.5,-,0.00,,Mostly Cloudy,210,2012-10-08 10:35:00
5:55 AM,42.8,33.8,70,29.64,10.0,SSW,10.4,-,0.00,,Overcast,210,2012-10-08 10:55:00
6:15 AM,44.6,33.8,66,29.63,10.0,SSW,9.2,-,0.00,,Overcast,200,2012-10-08 11:15:00
6:35 AM,44.6,32.0,61,29.62,10.0,SSW,9.2,-,0.00,,Overcast,200,2012-10-08 11:35:00
6:55 AM,44.6,32.0,61,29.61,10.0,South,9.2,-,0.00,,Mostly Cloudy,190,2012-10-08 11:55:00
7:15 AM,44.6,32.0,61,29.60,10.0,South,10.4,-,0.00,,Partly Cloudy,190,2012-10-08 12:15:00
7:35 AM,44.6,32.0,61,29.59,10.0,South,10.4,-,0.00,,Scattered Clouds,190,2012-10-08 12:35:00
8:15 AM,46.4,32.0,57,29.57,10.0,SSW,13.8,-,0.00,,Mostly Cloudy,200,2012-10-08 13:15:00
8:55 AM,48.2,32.0,54,29.56,10.0,SW,17.3,21.9,0.00,,Mostly Cloudy,220,2012-10-08 13:55:00
9:15 AM,48.2,32.0,54,29.56,10.0,SW,17.3,-,0.00,,Scattered Clouds,220,2012-10-08 14:15:00
9:35 AM,48.2,32.0,54,29.55,10.0,SW,19.6,-,0.00,,Mostly Cloudy,220,2012-10-08 14:35:00
9:55 AM,48.2,32.0,54,29.55,10.0,SW,18.4,-,0.00,,Mostly Cloudy,220,2012-10-08 14:55:00
10:15 AM,48.2,32.0,54,29.55,10.0,SW,13.8,-,0.00,,Mostly Cloudy,220,2012-10-08 15:15:00
10:35 AM,50.0,32.0,50,29.55,10.0,WSW,15.0,21.9,0.00,,Scattered Clouds,240,2012-10-08 15:35:00
10:55 AM,51.8,33.8,50,29.55,10.0,WSW,15.0,20.7,0.00,,Scattered Clouds,250,2012-10-08 15:55:00
11:15 AM,53.6,37.4,54,29.55,10.0,West,18.4,23.0,0.00,,Scattered Clouds,280,2012-10-08 16:15:00
11:35 AM,53.6,39.2,58,29.56,10.0,West,19.6,26.5,0.00,,Mostly Cloudy,280,2012-10-08 16:35:00
12:15 PM,57.2,39.2,51,29.57,10.0,WNW,25.3,33.4,0.00,,Clear,300,2012-10-08 17:15:00
12:35 PM,57.2,39.2,51,29.57,10.0,WNW,27.6,32.2,0.00,,Partly Cloudy,290,2012-10-08 17:35:00
12:55 PM,57.2,37.4,48,29.57,10.0,WNW,25.3,33.4,0.00,,Clear,300,2012-10-08 17:55:00
1:15 PM,60.8,39.2,45,29.58,10.0,WNW,26.5,36.8,0.00,,Clear,300,2012-10-08 18:15:00
1:35 PM,59.0,39.2,48,29.59,10.0,WNW,27.6,38.0,0.00,,Clear,300,2012-10-08 18:35:00
1:55 PM,57.2,37.4,48,29.60,10.0,WNW,26.5,34.5,0.00,,Clear,300,2012-10-08 18:55:00
2:15 PM,57.2,37.4,48,29.60,10.0,WNW,28.8,38.0,0.00,,Partly Cloudy,300,2012-10-08 19:15:00
2:35 PM,57.2,37.4,48,29.61,10.0,NW,27.6,35.7,0.00,,Partly Cloudy,310,2012-10-08 19:35:00
2:55 PM,57.2,37.4,48,29.62,10.0,NW,31.1,40.3,0.00,,Partly Cloudy,310,2012-10-08 19:55:00
3:15 PM,57.2,35.6,44,29.63,10.0,NW,28.8,35.7,0.00,,Partly Cloudy,310,2012-10-08 20:15:00
3:35 PM,57.2,35.6,44,29.64,10.0,WNW,23.0,32.2,0.00,,Scattered Clouds,300,2012-10-08 20:35:00
3:55 PM,57.2,35.6,44,29.65,10.0,NW,28.8,33.4,0.00,,Mostly Cloudy,310,2012-10-08 20:55:00
4:15 PM,57.2,33.8,41,29.65,10.0,WNW,24.2,32.2,0.00,,Mostly Cloudy,300,2012-10-08 21:15:00
4:35 PM,55.4,33.8,44,29.66,10.0,WNW,19.6,31.1,0.00,,Scattered Clouds,300,2012-10-08 21:35:00
5:15 PM,55.4,33.8,44,29.66,10.0,WNW,17.3,-,0.00,,Partly Cloudy,290,2012-10-08 22:15:00
5:35 PM,55.4,33.8,44,29.66,10.0,WNW,17.3,20.7,0.00,,Partly Cloudy,290,2012-10-08 22:35:00
5:55 PM,55.4,33.8,44,29.67,10.0,WNW,16.1,21.9,0.00,,Scattered Clouds,290,2012-10-08 22:55:00
6:15 PM,55.4,33.8,44,29.68,10.0,WNW,13.8,-,0.00,,Scattered Clouds,290,2012-10-08 23:15:00
6:35 PM,55.4,32.0,41,29.68,10.0,WNW,16.1,21.9,0.00,,Mostly Cloudy,290,2012-10-08 23:35:00
6:55 PM,55.4,32.0,41,29.69,10.0,WNW,15.0,19.6,0.00,,Overcast,300,2012-10-08 23:55:00
7:15 PM,53.6,32.0,44,29.70,10.0,WNW,15.0,-,0.00,,Mostly Cloudy,290,2012-10-09 00:15:00
7:35 PM,51.8,32.0,47,29.70,10.0,WNW,10.4,-,0.00,,Partly Cloudy,290,2012-10-09 00:35:00
7:55 PM,50.0,30.2,47,29.71,10.0,West,8.1,-,0.00,,Clear,280,2012-10-09 00:55:00
8:15 PM,46.4,30.2,53,29.71,10.0,West,6.9,-,0.00,,Partly Cloudy,260,2012-10-09 01:15:00
8:35 PM,46.4,30.2,53,29.71,10.0,West,8.1,-,0.00,,Scattered Clouds,270,2012-10-09 01:35:00
8:55 PM,44.6,30.2,57,29.72,10.0,West,8.1,-,0.00,,Scattered Clouds,270,2012-10-09 01:55:00
9:15 PM,44.6,30.2,57,29.72,10.0,West,10.4,-,0.00,,Clear,270,2012-10-09 02:15:00
9:35 PM,44.6,30.2,57,29.72,10.0,West,8.1,-,0.00,,Clear,270,2012-10-09 02:35:00
9:55 PM,44.6,30.2,57,29.73,10.0,West,11.5,-,0.00,,Clear,270,2012-10-09 02:55:00
10:15 PM,44.6,30.2,57,29.73,10.0,West,11.5,-,0.00,,Clear,270,2012-10-09 03:15:00
10:35 PM,42.8,30.2,61,29.74,10.0,West,10.4,-,0.00,,Clear,270,2012-10-09 03:35:00
10:55 PM,42.8,30.2,61,29.74,10.0,West,10.4,-,0.00,,Clear,280,2012-10-09 03:55:00
11:15 PM,42.8,30.2,61,29.74,10.0,West,9.2,-,0.00,,Clear,270,2012-10-09 04:15:00
11:35 PM,42.8,30.2,61,29.74,10.0,West,10.4,-,0.00,,Clear,270,2012-10-09 04:35:00